Location: Bairro Piraquara
(22.8953°S, 43.4369°W)
Time: 15:42:35
(UTC+00:00)

Daily predictions for brighter satellites

Satellite Brightness Start Highest point End
(mag) Time Altitude Azimuth Time Altitude Azimuth Time Altitude Azimuth
ARGOS 4.0 21:58:25 10° SE 22:03:02 28° E 22:07:35 10° NNE
Cosmos 1603 4.0 21:57:47 10° NNW 22:03:32 80° WSW 22:09:18 10° SSE
Lacrosse 5 rocket 2.1 22:00:02 10° SSW 22:04:24 44° SE 22:08:49 10° NE
GPS 2-04 Rocket1 3.1 22:01:53 10° WSW 22:05:09 43° NNW 22:08:23 10° NE
DELTA 2 R/B(2) 4.4 22:04:32 10° SSW 22:05:57 26° SE 22:07:46 10° E
ATLAS 3B R/B 2.9 21:58:52 10° NNW 22:06:12 64° ENE 22:13:36 10° SSE
HJ-1C 4.3 22:03:23 10° SE 22:06:15 27° E 22:09:05 10° NNE
Aureole 3 3.1 22:08:32 10° N 22:11:51 90° ENE 22:15:57 10° S
IRS-1C Rocket 4.2 22:07:16 10° SSE 22:12:36 89° W 22:17:51 10° NNW
Cosmos 1455 2.4 22:09:13 10° N 22:13:05 81° W 22:17:00 10° S
Cosmos 2058 3.6 22:15:43 10° SSE 22:19:37 35° E 22:23:29 10° NNE
Intelsat 5-3 Rocket 4.1 22:08:16 10° WNW 22:23:05 83° N 22:28:20 10° E
Meteor 2-1 Rocket 4.4 22:20:05 10° N 22:25:36 79° W 22:31:16 10° S
CZ-4 R/B 2.0 22:21:58 10° S 22:26:11 64° WSW 22:30:20 10° NNW
H-2A R/B 1.9 22:23:05 10° SSE 22:28:05 85° ENE 22:32:59 10° N
Meteor 2-21 4.4 22:22:01 10° S 22:28:07 76° E 22:34:08 10° N
Cosmos-2242 4.1 22:25:28 10° NNE 22:29:06 26° E 22:32:48 10° SSE
Aureole 3 Rocket 4.0 22:24:18 10° NNE 22:29:21 57° E 22:36:32 10° SSE
Cosmos 2084 Rocket 3.9 22:26:42 10° S 22:30:43 41° ESE 22:33:40 16° NE
Cosmos 1825 2.7 22:28:57 10° SSE 22:32:31 38° E 22:35:33 13° NNE
SJ-11-01 4.3 22:27:57 10° SSE 22:32:45 89° WSW 22:37:29 10° NNW
ATLAS 2AS CENTAUR RB 4.5 22:26:58 10° NNW 22:32:48 34° NE 23:03:21 10° E
ATLAS 2AS CENTAUR RB 4.5 22:26:59 10° NNW 22:32:48 34° NE 23:03:21 10° E
CZ-2C R/B 4.4 22:28:18 10° S 22:32:49 40° WSW 22:37:25 10° NW
Cosmos 1408 2.5 22:31:17 10° S 22:35:00 85° E 22:38:38 10° N
Cosmos 405 3.9 22:33:11 13° NNE 22:35:39 27° E 22:38:41 10° SSE
GPS 2-17 Rocket1 3.6 22:35:13 10° W 22:39:38 44° N 22:42:26 20° NE
Cosmos 1812 Rocket 3.5 22:35:41 10° N 22:40:01 87° E 22:44:24 10° S
NOSS 3-3 (A) 3.8 22:35:03 10° SSW 22:40:56 66° ESE 22:45:17 16° NE
NOSS 3-3 (C) 3.8 22:35:08 10° SSW 22:41:03 65° ESE 22:45:22 17° NE
Cosmos 1076 Rocket 4.0 22:39:37 10° SSE 22:43:49 42° E 22:46:40 18° NNE
Cosmos 1441 Rocket 3.1 22:41:16 10° S 22:45:06 83° E 22:48:44 11° N
Cosmos 1184 Rocket 3.1 22:42:31 10° S 22:45:37 42° E 22:46:55 27° NE
Cosmos 489 Rocket 4.5 22:42:05 10° N 22:48:15 63° ENE 22:54:26 10° SSE
Meteor 2-21 Rocket 4.4 22:42:17 10° S 22:48:24 86° E 22:54:26 10° N
Cosmos 2369 Rocket 2.3 22:47:27 10° S 22:53:08 60° ESE 22:56:55 21° NE
GPS 2-18 Rocket1 3.1 22:51:34 10° W 22:55:27 64° N 22:57:05 32° ENE
CZ-2C R/B 3.6 22:54:05 10° SSW 22:56:29 16° SSE 22:58:58 10° SE
USA 186 1.8 22:54:20 10° SSE 22:57:32 56° E 22:58:47 32° NNE
Cosmos 158 Rocket 4.0 22:53:34 10° N 22:58:52 67° ENE 23:04:07 10° SSE
Atlas Centaur 2 2.1 22:58:11 10° SW 23:01:33 37° SSE 23:03:09 24° ESE
Cosmos 923 Rocket 3.9 22:57:33 10° N 23:02:45 65° ENE 23:07:57 10° SSE
Cosmos 1943 Rocket 2.8 22:57:40 10° SSW 23:03:02 54° WNW 23:08:18 10° N
SJ-6B 3.2 23:00:04 10° SSE 23:03:28 36° E 23:03:28 36° E
CSL-04 Rocket 4.0 23:01:15 10° S 23:06:32 67° WSW 23:11:48 10° NNW
Centaur D-1A AC-31 0.7 23:05:24 10° WSW 23:08:29 79° SSE 23:09:41 39° E
Cosmos 1680 Rocket 3.5 23:04:36 10° N 23:09:39 54° ENE 23:14:45 10° SSE
SL-08 RB Rocket 4.1 23:05:47 10° S 23:10:26 65° WSW 23:15:00 10° NNW
Nadezhda 2 Rocket 4.4 23:07:58 10° S 23:14:24 77° E 23:18:40 22° N
Cosmos 1633 4.4 23:11:57 10° SSE 23:13:36 19° SE 23:13:36 19° SE
Meteor 2-3 Rocket 4.4 23:12:34 10° SSE 23:17:54 35° E 23:18:41 34° E
Yuri Rocket 3.8 23:17:13 10° WSW 23:21:13 44° S 23:22:55 30° ESE
MetOp-A 4.0 23:19:47 10° SSE 23:25:12 81° ENE 23:29:00 20° N
Cosmos 1244 Rocket 4.5 23:19:17 10° S 23:25:43 87° E 23:29:28 27° N
H-2A R/B 3.6 23:38:14 64° SSE 23:38:14 64° SSE 23:41:53 10° S
OAO 2 Rocket 3.2 23:35:01 10° WSW 23:40:22 84° SSE 23:40:56 71° E
Lacrosse 5 rocket 4.1 23:40:50 10° W 23:43:14 14° WNW 23:45:14 11° NW
CZ-3B R/B 2.9 23:41:29 10° W 23:45:38 70° S 23:50:40 28° E
Cosmos 2112 Rocket 4.2 23:44:17 24° NNW 23:47:23 69° WSW 23:52:37 10° S
Ariane Rocket 3.0 23:44:31 10° S 23:49:37 76° WSW 23:50:52 51° NNW
MOS 1 4.2 23:44:29 10° SSE 23:50:13 87° WSW 23:51:58 47° NNW
Cosmos 1656 Rocket 3.8 23:45:20 10° SSW 23:51:01 70° WNW 23:52:06 56° NNW
Cosmos 2315 Rocket 4.1 23:51:53 56° E 23:51:53 56° E 23:57:41 10° SSE
SL-08 ROCKET BODY 4.4 23:47:08 10° S 23:53:23 86° W 23:54:41 59° N
Aurora 2 Rocket 3.0 23:49:37 10° W 23:55:09 66° WNW 23:55:09 66° WNW
